This demonstration page uses our WeatherBlox Daily Observations layout. Learn more.

Left ArrowRight Arrow

39.08367, -84.50855

Hourly Observations for May 6, 2021

Temp ( °F °C ) Dew Point ( °F °C ) Humidity (%) Winds ( mph kmh ) Pressure ( in mb ) Visibility ( mi km ) Precip ( " mm )
12:53 am 00:53 Clear 42 5.6 41 5 96 96 N N/A 30.16 1021 10 16.0934 N/A
1:53 am 01:53 Clear 41 5 40 4.4 96 96 N N/A 30.16 1021 10 16.0934 N/A
2:42 am 02:42 Clear with Mist and Fog 40 4.4 40 4.4 100 100 NE 3 6 30.18 1022 2.5 4.02335 N/A
2:51 am 02:51 Clear 39 4 39 4 100 100 N N/A 30.18 1022 10 16.0934 N/A
2:53 am 02:53 Clear 40 4.4 40 4.4 100 100 N N/A 30.16 1021 10 16.0934 N/A
3:47 am 03:47 Clear with Mist and Fog 39 4 39 4 100 100 N N/A 30.17 1022 1.5 2.41401 N/A
3:53 am 03:53 Clear with Mist and Fog 38 3.3 38 3.3 100 100 N N/A 30.14 1021 1 1.60934 N/A
4:11 am 04:11 Clear with Mist and Fog 39 3.9 39 3.9 100 100 NNE 3 6 30.16 1021 3 4.82802 N/A
4:37 am 04:37 Clear with Mist and Fog 38 3.3 38 3.3 100 100 N N/A 30.16 1021 1.75 2.816345 N/A
4:53 am 04:53 Clear with Mist and Fog 39 3.9 39 3.9 100 100 N N/A 30.14 1021 4 6.43736 N/A
5:02 am 05:02 Mostly Clear with Mist and Fog 37 2.8 37 2.8 100 100 N N/A 30.16 1021 1.75 2.816345 N/A
5:06 am 05:06 Clear with Mist and Fog 37 2.8 37 2.8 100 100 N N/A 30.16 1021 0.75 1.207005 N/A
5:15 am 05:15 Clear with Mist and Fog 38 3.3 38 3.3 100 100 N N/A 30.17 1022 1 1.60934 N/A
5:32 am 05:32 Clear with Mist and Fog 39 3.9 39 3.9 100 100 N N/A 30.18 1022 0.75 1.207005 N/A
5:37 am 05:37 Clear with Mist and Fog 39 3.9 39 3.9 100 100 N N/A 30.18 1022 2 3.21868 N/A
5:44 am 05:44 Clear 38 3.3 38 3.3 100 100 N N/A 30.18 1022 8 12.87472 N/A
5:53 am 05:53 Clear with Mist and Fog 36 2.2 36 2.2 100 100 N N/A 30.16 1021 2.5 4.02335 N/A
6:05 am 06:05 Clear 38 3.3 38 3.3 100 100 ENE 3 6 30.17 1022 8 12.87472 N/A
6:51 am 06:51 Partly Cloudy 39 4 39 4 100 100 N N/A 30.18 1022 10 16.0934 N/A
6:53 am 06:53 Partly Cloudy 39 3.9 39 3.9 100 100 N N/A 30.16 1022 10 16.0934 N/A
7:53 am 07:53 Mostly Sunny 44 6.7 43 6.1 96 96 N N/A 30.18 1022 10 16.0934 N/A
8:53 am 08:53 Sunny 49 9.4 45 7.2 86 86 N N/A 30.17 1022 10 16.0934 N/A
9:53 am 09:53 Sunny 53 11.7 44 6.7 72 72 S 7 11 30.18 1022 10 16.0934 N/A
10:53 am 10:53 Sunny 57 13.9 43 6.1 60 60 SSW 10 17 30.16 1022 10 16.0934 N/A
11:53 am 11:53 Sunny 59 15 42 5.6 54 54 SSW 9 15 30.14 1021 10 16.0934 N/A
12:53 pm 12:53 Mostly Sunny 61 16.1 41 5 48 48 SW 8 13 30.11 1020 10 16.0934 N/A
1:53 pm 13:53 Mostly Sunny 63 17.2 42 5.6 47 47 S 6 9 30.08 1019 10 16.0934 N/A
2:53 pm 14:53 Partly Cloudy 63 17.2 40 4.4 43 43 VRB 3 6 30.05 1018 10 16.0934 N/A
3:53 pm 15:53 Cloudy 62 16.7 40 4.4 44 44 WSW 3 6 30.03 1017 10 16.0934 N/A
4:53 pm 16:53 Cloudy 62 16.7 40 4.4 44 44 W 8 13 30.02 1017 10 16.0934 0.001 0.001
5:53 pm 17:53 Cloudy with Light Rain 62 16.7 39 3.9 43 43 N N/A 30.01 1016 10 16.0934 0.001 0.001
6:53 pm 18:53 Cloudy 60 15.6 45 7.2 58 58 E 5 7 29.99 1016 10 16.0934 0.001 0.001
7:53 pm 19:53 Cloudy with Light Rain 57 13.9 48 8.9 72 72 N N/A 29.99 1016 10 16.0934 0.001 0.001
8:53 pm 20:53 Cloudy with Light Rain 55 12.8 48 8.9 77 77 N 8 13 29.99 1016 10 16.0934 0.01 0.254
9:53 pm 21:53 Cloudy with Light Rain 52 11.1 50 10 93 93 VRB 3 6 30.01 1016 9 14.48406 0.02 0.508
10:53 pm 22:53 Cloudy with Light Rain 51 10.6 48 8.9 89 89 NW 7 11 30.03 1017 9 14.48406 0.06 1.524
11:53 pm 23:53 Cloudy with Light Rain 50 10 47 8.3 89 89 W 3 6 30.01 1016 10 16.0934 0.05 1.27

Powered by AerisWeather